sat.trackr.live / text

‹ back to catalog

STARLINK-32775

NORAD 62742 · 2025-014H

PAYLOAD ACTIVE UNKNOWN

§ Identity

Operator
Country
US
Launch date
2025-01-21
Launch site
AFETR
Launch vehicle
Mass (kg)
RCS (m²)

Purposes: comms

External: N2YO · Heavens-Above · Gunter

§ Orbital elements

Epoch: 2026-09-21T18:06:54.854784Z

Period
94.27 min
Inclination
43.0030°
Eccentricity
0.0001359
Mean motion
15.27583157 rev/d
Perigee alt
482.1 km
Apogee alt
484.0 km
Semi-major
6,861.2 km
B*
3.4417e-4
RAAN
127.0613°
Arg perigee
270.4966°
Mean anomaly
89.5730°
Rev number
9,324

§ Raw data

STARLINK-327751 62742U 25014H   26264.75480156  .00009221  00000+0  34417-3 0  99942 62742  43.0030 127.0613 0001359 270.4966  89.5730 15.27583157 93249

JSON: /api/v1/satellites/62742 · /tle

For live sub-satellite position, see the globe view (requires WebGL).

§ Visibility from observer

Set your observer location to see the next 7 days of passes ≥ 10°. The values pass through the URL so the page stays shareable.

No JS? Fill the form by hand. The geolocation button needs JavaScript.